Weather History for Meadville, PA

Change the Weather History Date:

Wednesday, May 29, 2013

  Actual Average Record
Temperature  
Mean Temperature 74 °F -  
Max Temperature 82 °F 74 °F 88 °F (2006)
Min Temperature 68 °F 46 °F 32 °F (1949)
Cooling Degree Days 10    
Growing Degree Days 24 (Base 50)    
Moisture  
Dew Point 61 °F    
Average Humidity 66    
Maximum Humidity 81    
Minimum Humidity 54    
Precipitation  
Precipitation 0.00 in - - ()
Sea Level Pressure  
Sea Level Pressure 30.01 in    
Wind  
Wind Speed 6 mph (SW)    
Max Wind Speed 10 mph    
Max Gust Speed 24 mph    
Visibility 10 miles    
Events      
Averages and records for this station are not official NWS values.
T = Trace of Precipitation, MM = Missing Value Source: NWS Daily Summary

Daily Weather History Graph

Daily Weather History Graph

Search for Another Location

Airport:

Trip Planner

Search our weather history database for the weather conditions in past years. The results will help you decide how hot, cold, wet, or windy it might be!

Date:

Astronomy

May. 29, 2013 Rise Set
Actual Time 5:50 AM EDT 8:46 PM EDT
Civil Twilight 5:17 AM EDT 9:19 PM EDT
Nautical Twilight 4:35 AM EDT 10:01 PM EDT
Astronomical Twilight 3:46 AM EDT 10:50 PM EDT
Moon 12:06 AM EDT (5/29) 10:49 AM EDT (5/29)
Length of Visible Light 16h 02m
Length of Day
14h 56m
Waning Gibbous, 73% of the Moon is Illuminated
May 29
Waning Gibbous
May 31
Last Quarter
Jun 8
New
Jun 16
First Quarter
Jun 23
Full

Hourly Weather History & Observations

Time (EDT) Temp. Heat Index Dew Point Humidity Pressure Visibility Wind Dir Wind Speed Gust Speed Precip Events Conditions
12:53 AM 68.0 °F - 62.1 °F 81% 29.96 in 10.0 mi Variable 4.6 mph - N/A   Partly Cloudy
1:53 AM 69.1 °F - 61.0 °F 75% 29.96 in 10.0 mi South 6.9 mph - N/A   Overcast
2:53 AM 68.0 °F - 60.1 °F 76% 29.96 in 10.0 mi SSW 6.9 mph - 0.00 in   Scattered Clouds
3:53 AM 68.0 °F - 59.0 °F 73% 29.95 in 10.0 mi South 5.8 mph - 0.00 in   Scattered Clouds
4:53 AM 69.1 °F - 59.0 °F 70% 29.95 in 10.0 mi SSW 9.2 mph - N/A   Partly Cloudy
5:53 AM 69.1 °F - 57.9 °F 68% 29.97 in 10.0 mi SW 8.1 mph 16.1 mph N/A   Scattered Clouds
6:53 AM 69.1 °F - 57.9 °F 68% 30.01 in 10.0 mi SW 8.1 mph - N/A   Overcast
7:53 AM 70.0 °F - 59.0 °F 68% 30.01 in 10.0 mi SSW 5.8 mph - N/A   Partly Cloudy
8:53 AM 72.0 °F - 59.0 °F 64% 30.03 in 10.0 mi SW 8.1 mph - N/A   Mostly Cloudy
9:53 AM 73.0 °F - 60.1 °F 64% 30.03 in 10.0 mi Variable 6.9 mph 18.4 mph N/A   Mostly Cloudy
10:53 AM 72.0 °F - 60.1 °F 66% 30.03 in 10.0 mi SSW 6.9 mph - N/A   Overcast
11:53 AM 73.9 °F - 62.1 °F 66% 30.03 in 10.0 mi SSW 6.9 mph - N/A   Mostly Cloudy
12:53 PM 79.0 °F - 63.0 °F 58% 30.02 in 10.0 mi SSW 10.4 mph - N/A   Clear
1:53 PM 80.1 °F 81.2 °F 62.1 °F 54% 30.02 in 10.0 mi SW 8.1 mph 24.2 mph N/A   Scattered Clouds
2:53 PM 80.1 °F 81.2 °F 62.1 °F 54% 30.03 in 10.0 mi SW 9.2 mph 17.3 mph N/A   Mostly Cloudy
3:53 PM 81.0 °F 82.2 °F 63.0 °F 54% 30.02 in 10.0 mi WSW 8.1 mph - N/A   Mostly Cloudy
4:53 PM 80.1 °F 81.2 °F 62.1 °F 54% 30.01 in 10.0 mi WSW 8.1 mph - N/A   Overcast
5:53 PM 78.1 °F - 64.9 °F 64% 30.03 in 10.0 mi NW 4.6 mph - 0.00 in   Overcast
6:53 PM 75.9 °F - 66.0 °F 71% 30.03 in 10.0 mi Calm Calm - N/A   Mostly Cloudy
7:53 PM 77.0 °F - 64.9 °F 66% 30.03 in 10.0 mi SSW 3.5 mph - N/A   Clear
8:53 PM 73.9 °F - 64.9 °F 73% 30.03 in 10.0 mi SSW 3.5 mph - N/A   Partly Cloudy
9:53 PM 73.0 °F - 62.1 °F 68% 30.04 in 10.0 mi Calm Calm - N/A   Scattered Clouds
10:53 PM 71.1 °F - 60.1 °F 68% 30.06 in 10.0 mi Calm Calm - N/A   Clear
11:53 PM 70.0 °F - 59.0 °F 68% 30.07 in 10.0 mi SSW 4.6 mph - N/A   Clear